Location: Nitra
(0.0000°N, 18.0833°E)
Time: 17:38:17
(UTC+01:00)

Meteor 2-21 - Pass Details

Date: 24 January 2021
Orbit: 935 x 966 km, 82.6° (Epoch: 02 March)

Event Time Altitude Azimuth Distance (km) Brightness Sun altitude
Rises 19:06:47 0° 181° (S) 3,589 7.7 -15.8°
Reaches altitude 10° 19:09:16 10° 179° (S) 2,643 7.0 -16.4°
Maximum altitude 19:15:18 77° 93° (E) 962 4.3 -17.8°
Drops below altitude 10° 19:21:19 10° 8° (N) 2,643 6.5 -19.2°
Enters shadow 19:22:47 - 7° (N) 3,201 6.9 -19.5°
